This demonstration page uses our WeatherBlox Daily Observations layout. Learn more.

40.92945, -100.16068

Hourly Observations for May 9, 2018

Temp ( °F °C ) Dew Point ( °F °C ) Humidity (%) Winds ( mph kmh ) Pressure ( in mb ) Visibility ( mi km ) Precip ( " mm )
1:55 am 01:55 Clear 54 12 47 8.1 77 77 W 9 15 29.94 1014 10 16.0934 0 0
2:15 am 02:15 Clear 55 12.7 48 8.7 77 77 WNW 10 17 29.91 1013 10 16.0934 0 0
2:55 am 02:55 Clear 55 12.8 48 8.7 76 76 WNW 8 13 29.91 1013 10 16.0934 0 0
3:15 am 03:15 Clear 53 11.8 47 8.6 81 81 WNW 9 15 29.94 1014 10 16.0934 0 0
3:35 am 03:35 Clear 53 11.5 47 8.5 82 82 NW 6 9 29.94 1014 10 16.0934 0 0
3:55 am 03:55 Clear 50 10.1 46 7.7 85 85 WNW 7 11 29.94 1014 10 16.0934 0 0
4:15 am 04:15 Clear 53 11.4 48 8.7 84 84 W 10 17 29.94 1014 10 16.0934 0 0
4:35 am 04:35 Clear 53 11.6 48 9 84 84 WNW 9 15 29.94 1014 10 16.0934 0 0
4:55 am 04:55 Clear 53 11.4 48 8.8 84 84 WNW 8 13 29.94 1014 10 16.0934 0 0
5:15 am 05:15 Clear 52 11.1 48 8.8 86 86 WNW 9 15 29.94 1014 10 16.0934 0 0
5:35 am 05:35 Clear 52 11 48 8.8 86 86 WNW 10 17 29.94 1014 10 16.0934 0 0
5:55 am 05:55 Clear 52 11.1 48 9 87 87 WNW 10 17 29.97 1015 10 16.0934 0 0
6:15 am 06:15 Clear 51 10.5 47 8.5 88 88 WNW 10 17 29.97 1015 10 16.0934 0 0
6:35 am 06:35 Sunny 49 9.7 46 8 89 89 W 8 13 29.97 1015 10 16.0934 0 0
6:55 am 06:55 Sunny 49 9.6 47 8.1 90 90 W 9 15 30 1016 10 16.0934 0 0
7:15 am 07:15 Sunny 52 10.9 48 9 88 88 W 9 15 29.97 1015 10 16.0934 0 0
7:35 am 07:35 Sunny 54 12 49 9.6 85 85 W 9 15 29.97 1015 10 16.0934 0 0
7:55 am 07:55 Sunny 55 12.9 50 10 83 83 W 10 17 29.94 1014 10 16.0934 0 0
8:15 am 08:15 Sunny 57 14.1 51 10.6 80 80 WNW 10 17 29.94 1014 10 16.0934 0 0
8:35 am 08:35 Sunny 60 15.3 52 11.2 77 77 WNW 12 19 29.94 1014 10 16.0934 0 0
8:55 am 08:55 Sunny 62 16.6 52 11.1 70 70 WNW 10 17 29.91 1013 10 16.0934 0 0
9:15 am 09:15 Sunny 64 17.8 53 11.7 68 68 NW 10 17 29.91 1013 10 16.0934 0 0
9:35 am 09:35 Sunny 66 18.8 54 12 65 65 NW 10 17 29.91 1013 10 16.0934 0 0
9:55 am 09:55 Sunny 68 20.1 54 12.2 61 61 WNW 10 17 29.88 1012 10 16.0934 0 0
10:15 am 10:15 Sunny 70 21.1 54 12.3 57 57 NW 10 17 29.88 1012 10 16.0934 0 0
10:35 am 10:35 Sunny 73 22.5 53 11.5 50 50 NW 10 17 29.88 1012 10 16.0934 0 0
10:55 am 10:55 Sunny 74 23.6 50 10.1 43 43 NW 10 17 29.85 1011 10 16.0934 0 0
11:15 am 11:15 Sunny 76 24.4 50 10 40 40 NW 16 26 29.85 1011 10 16.0934 0 0
11:35 am 11:35 Sunny 77 25.2 51 10.3 39 39 NW 14 22 29.85 1011 10 16.0934 0 0
11:55 am 11:55 Sunny 78 25.8 48 9.1 35 35 NW 13 20 29.83 1010 10 16.0934 0 0
12:15 pm 12:15 Sunny 80 26.4 49 9.4 34 34 NW 13 20 29.8 1009 10 16.0934 0 0
12:35 pm 12:35 Sunny 81 27 49 9.4 33 33 NW 13 20 29.8 1009 10 16.0934 0 0
12:55 pm 12:55 Sunny 81 27.1 48 9.1 32 32 NW 9 15 29.8 1009 10 16.0934 0 0
1:15 pm 13:15 Sunny 82 27.6 49 9.6 32 32 NW 12 19 29.77 1008 10 16.0934 0 0
1:35 pm 13:35 Sunny 83 28.1 49 9.7 32 32 W 12 19 29.77 1008 10 16.0934 0 0
1:55 pm 13:55 Sunny 84 28.8 48 8.7 28 28 WNW 14 22 29.77 1008 10 16.0934 0 0
2:15 pm 14:15 Partly Cloudy 83 28.3 48 9.1 30 30 NW 13 20 29.77 1008 10 16.0934 0 0
2:35 pm 14:35 Partly Cloudy 83 28.3 48 9 30 30 W 16 26 29.77 1008 10 16.0934 0 0
2:55 pm 14:55 Partly Cloudy 84 28.8 47 8.4 28 28 NW 10 17 29.77 1008 10 16.0934 0 0
3:15 pm 15:15 Partly Cloudy 83 28.6 46 7.6 27 27 NW 13 20 29.77 1008 10 16.0934 0 0
3:35 pm 15:35 Partly Cloudy 85 29.6 47 8.1 26 26 W 10 17 29.77 1008 10 16.0934 0 0
3:55 pm 15:55 Partly Cloudy 84 28.9 46 7.7 26 26 NNW 15 24 29.77 1008 10 16.0934 0 0
4:15 pm 16:15 Partly Cloudy 83 28.6 47 8.5 28 28 NW 14 22 29.77 1008 10 16.0934 0 0
4:35 pm 16:35 Partly Cloudy 84 28.9 46 7.5 26 26 NW 15 24 29.77 1008 10 16.0934 0 0
4:55 pm 16:55 Partly Cloudy 83 28.3 47 8.5 29 29 NW 10 17 29.74 1007 10 16.0934 0 0
5:15 pm 17:15 Mostly Cloudy 83 28.4 46 7.5 27 27 N 10 17 29.77 1008 10 16.0934 0 0
5:35 pm 17:35 Mostly Cloudy 82 28 46 7.7 28 28 NW 13 20 29.77 1008 10 16.0934 0 0
5:55 pm 17:55 Partly Cloudy 84 28.9 47 8.3 27 27 NW 14 22 29.77 1008 10 16.0934 0 0
6:15 pm 18:15 Mostly Cloudy 83 28.3 45 7.4 27 27 N 6 9 29.74 1007 10 16.0934 0 0
6:35 pm 18:35 Mostly Cloudy 84 28.8 44 6.9 25 25 N 8 13 29.74 1007 10 16.0934 0 0
6:55 pm 18:55 Sunny 83 28.6 45 7.4 26 26 NNW 12 19 29.74 1007 10 16.0934 0 0
7:15 pm 19:15 Sunny 82 28 46 7.5 27 27 N 8 13 29.74 1007 10 16.0934 0 0
7:35 pm 19:35 Sunny 81 27.3 45 7.3 28 28 NNE 8 13 29.74 1007 10 16.0934 0 0
7:55 pm 19:55 Sunny 79 26.2 45 7.4 30 30 NE 14 22 29.74 1007 10 16.0934 0 0
8:15 pm 20:15 Sunny 76 24.3 46 7.9 35 35 NE 12 19 29.77 1008 10 16.0934 0 0
8:35 pm 20:35 Sunny 74 23.1 46 7.8 38 38 NE 12 19 29.8 1009 10 16.0934 0 0
8:55 pm 20:55 Clear 71 21.4 47 8.3 43 43 ENE 9 15 29.83 1010 10 16.0934 0 0
9:15 pm 21:15 Clear 67 19.2 48 8.9 51 51 ENE 8 13 29.83 1010 10 16.0934 0 0
9:35 pm 21:35 Clear 65 18.1 48 9 56 56 E 9 15 29.85 1011 10 16.0934 0 0
9:55 pm 21:55 Clear 64 17.6 48 8.8 57 57 E 8 13 29.88 1012 10 16.0934 0 0
10:15 pm 22:15 Clear 63 17.1 48 8.7 58 58 E 7 11 29.88 1012 10 16.0934 0 0
10:35 pm 22:35 Clear 61 16.1 47 8.6 61 61 ENE 6 9 29.88 1012 10 16.0934 0 0
10:55 pm 22:55 Clear 60 15.6 47 8.3 62 62 ENE 3 6 29.91 1013 10 16.0934 0 0

Powered by AerisWeather